JHB123 GVAC-GQNO

Flight info

Callsign JHB123
Flight time 1h 29m
Altitude FL230
Route IRPO1A POLMO R976 LUMPO UR976 ANITI UB601 BIKIS BIKI1L
Aircraft A306/H-VGDW/C

Departure

Time 2026-04-25 09:20
Airport Amílcar Cabral International Airport (GVAC)

Arrival

Time 2026-04-25 10:49
Airport Nouakchott–Oumtounsy International Airport (GQNO)
Time Latitude Longitude Altitude Speed Heading
2026-04-25 08:18 16.73662 -22.94516 189 ft 0 kts
2026-04-25 09:08 16.73655 -22.94517 189 ft 2 kts
2026-04-25 09:09 16.73640 -22.94521 189 ft 2 kts 27°
2026-04-25 09:09 16.73628 -22.94530 190 ft 2 kts 44°
2026-04-25 09:09 16.73618 -22.94542 191 ft 2 kts 61°
2026-04-25 09:09 16.73613 -22.94557 192 ft 2 kts 78°
2026-04-25 09:10 16.73611 -22.94573 194 ft 2 kts 93°
2026-04-25 09:10 16.73612 -22.94588 194 ft 2 kts 91°
2026-04-25 09:10 16.73612 -22.94603 195 ft 2 kts 89°
2026-04-25 09:10 16.73612 -22.94613 195 ft 2 kts 89°
2026-04-25 09:11 16.73612 -22.94649 195 ft 2 kts 89°
2026-04-25 09:11 16.73612 -22.94665 195 ft 2 kts 92°
2026-04-25 09:11 16.73616 -22.94680 195 ft 2 kts 123°
2026-04-25 09:12 16.73626 -22.94691 195 ft 2 kts 150°
2026-04-25 09:12 16.73641 -22.94696 195 ft 2 kts 178°
2026-04-25 09:12 16.73655 -22.94695 195 ft 1 kts 182°
2026-04-25 09:12 16.73657 -22.94695 195 ft 0 kts 181°
2026-04-25 09:14 16.73654 -22.94695 195 ft 3 kts 181°
2026-04-25 09:15 16.73606 -22.94696 195 ft 11 kts 180°
2026-04-25 09:15 16.73509 -22.94694 195 ft 16 kts 179°
2026-04-25 09:15 16.73395 -22.94693 195 ft 17 kts 180°
2026-04-25 09:15 16.73280 -22.94693 195 ft 16 kts 180°
2026-04-25 09:16 16.73167 -22.94692 195 ft 16 kts 180°
2026-04-25 09:16 16.73053 -22.94692 195 ft 17 kts 180°
2026-04-25 09:16 16.72921 -22.94690 195 ft 20 kts 179°
2026-04-25 09:16 16.72781 -22.94690 195 ft 20 kts 179°
2026-04-25 09:17 16.72517 -22.94688 194 ft 16 kts 180°
2026-04-25 09:17 16.72429 -22.94697 194 ft 9 kts 213°
2026-04-25 09:17 16.72405 -22.94760 194 ft 11 kts 263°
2026-04-25 09:18 16.72400 -22.94844 193 ft 12 kts 268°
2026-04-25 09:18 16.72445 -22.94888 193 ft 0 kts 359°
2026-04-25 09:19 16.72544 -22.94886 194 ft 38 kts
2026-04-25 09:19 16.73026 -22.94890 195 ft 102 kts 360°
2026-04-25 09:19 16.73940 -22.94896 194 ft 159 kts 359°
2026-04-25 09:19 16.75077 -22.94912 678 ft 163 kts 359°
2026-04-25 09:20 16.76182 -22.94930 1265 ft 161 kts 359°
2026-04-25 09:20 16.77286 -22.94946 1875 ft 158 kts 360°
2026-04-25 09:20 16.78346 -22.94955 2354 ft 158 kts
2026-04-25 09:20 16.79506 -22.94962 2541 ft 175 kts
2026-04-25 09:21 16.80765 -22.94968 2752 ft 192 kts
2026-04-25 09:21 16.82156 -22.94973 2955 ft 211 kts
2026-04-25 09:21 16.83727 -22.94977 3063 ft 240 kts
2026-04-25 09:21 16.85318 -22.94488 3596 ft 247 kts 38°
2026-04-25 09:22 16.86253 -22.93086 4592 ft 240 kts 69°
2026-04-25 09:22 16.86643 -22.91414 5378 ft 242 kts 79°
2026-04-25 09:22 16.86856 -22.89655 6053 ft 249 kts 83°
2026-04-25 09:22 16.86987 -22.87821 6515 ft 265 kts 85°
2026-04-25 09:23 16.87071 -22.85857 7101 ft 275 kts 86°
2026-04-25 09:23 16.87122 -22.83864 7663 ft 281 kts 87°
2026-04-25 09:23 16.87156 -22.81823 7915 ft 284 kts 88°
2026-04-25 09:23 16.87179 -22.79769 7930 ft 282 kts 88°
2026-04-25 09:24 16.87195 -22.77733 7932 ft 280 kts 88°
2026-04-25 09:24 16.86845 -22.75762 8018 ft 280 kts 113°
2026-04-25 09:24 16.85877 -22.73972 8381 ft 291 kts 121°
2026-04-25 09:24 16.84739 -22.72215 9196 ft 292 kts 123°
2026-04-25 09:25 16.83589 -22.70501 10063 ft 291 kts 123°
2026-04-25 09:25 16.82421 -22.68771 10598 ft 303 kts 124°
2026-04-25 09:25 16.81168 -22.66914 10907 ft 322 kts 124°
2026-04-25 09:25 16.79841 -22.64948 11165 ft 343 kts 124°
2026-04-25 09:26 16.78430 -22.62859 11418 ft 363 kts 124°
2026-04-25 09:26 16.76962 -22.60686 11884 ft 376 kts 124°
2026-04-25 09:26 16.75442 -22.58438 12615 ft 381 kts 124°
2026-04-25 09:26 16.73928 -22.56200 13404 ft 383 kts 123°
2026-04-25 09:27 16.72397 -22.53935 14137 ft 386 kts 123°
2026-04-25 09:27 16.70850 -22.51649 14778 ft 390 kts 123°
2026-04-25 09:27 16.69273 -22.49317 15391 ft 396 kts 123°
2026-04-25 09:27 16.67697 -22.46987 15995 ft 400 kts 123°
2026-04-25 09:28 16.66079 -22.44597 16602 ft 405 kts 123°
2026-04-25 09:28 16.64466 -22.42216 17186 ft 409 kts 122°
2026-04-25 09:28 16.62814 -22.39776 17756 ft 413 kts 122°
2026-04-25 09:28 16.61164 -22.37342 18299 ft 418 kts 122°
2026-04-25 09:29 16.59485 -22.34865 18826 ft 422 kts 123°
2026-04-25 09:29 16.58654 -22.33638 19079 ft 425 kts 122°
2026-04-25 09:29 16.56946 -22.31121 19591 ft 430 kts 122°
2026-04-25 09:29 16.55270 -22.28539 20098 ft 433 kts 118°
2026-04-25 09:30 16.53867 -22.25772 20602 ft 435 kts 112°
2026-04-25 09:30 16.52624 -22.22875 21114 ft 439 kts 110°
2026-04-25 09:30 16.51431 -22.19966 21606 ft 443 kts 110°
2026-04-25 09:30 16.50196 -22.16994 22081 ft 448 kts 110°
2026-04-25 09:31 16.48943 -22.14041 22535 ft 453 kts 111°
2026-04-25 09:31 16.47656 -22.11043 22991 ft 458 kts 111°
2026-04-25 09:31 16.46350 -22.08012 23453 ft 462 kts 111°
2026-04-25 09:31 16.45032 -22.04954 23906 ft 466 kts 111°
2026-04-25 09:32 16.43703 -22.01867 24339 ft 471 kts 111°
2026-04-25 09:32 16.42362 -21.98751 24755 ft 475 kts 111°
2026-04-25 09:32 16.41010 -21.95610 25157 ft 479 kts 111°
2026-04-25 09:32 16.39645 -21.92440 25546 ft 483 kts 111°
2026-04-25 09:33 16.38260 -21.89226 25920 ft 488 kts 111°
2026-04-25 09:33 16.36871 -21.86004 26293 ft 492 kts 111°
2026-04-25 09:33 16.35466 -21.82747 26701 ft 497 kts 111°
2026-04-25 09:33 16.34063 -21.79499 27206 ft 498 kts 111°
2026-04-25 09:34 16.32637 -21.76196 27701 ft 500 kts 112°
2026-04-25 09:34 16.31215 -21.72906 28218 ft 500 kts 112°
2026-04-25 09:34 16.29804 -21.69643 28668 ft 500 kts 112°
2026-04-25 09:34 16.28383 -21.66357 29126 ft 500 kts 112°
2026-04-25 09:35 16.27012 -21.63053 29548 ft 500 kts 110°
2026-04-25 09:35 16.25754 -21.59671 29950 ft 500 kts 108°
2026-04-25 09:35 16.24578 -21.56311 30328 ft 499 kts 108°
2026-04-25 09:35 16.23404 -21.52933 30671 ft 499 kts 108°
2026-04-25 09:36 16.22207 -21.49535 30925 ft 500 kts 109°
2026-04-25 09:36 16.19778 -21.42757 30949 ft 505 kts 109°
2026-04-25 09:37 16.17325 -21.35929 30953 ft 503 kts 109°
2026-04-25 09:37 16.14900 -21.29166 30937 ft 502 kts 109°
2026-04-25 09:38 16.12466 -21.22388 30938 ft 502 kts 109°
2026-04-25 09:38 16.10018 -21.15582 30938 ft 502 kts 109°
2026-04-25 09:39 16.07586 -21.08826 30939 ft 502 kts 109°
2026-04-25 09:39 16.05135 -21.02027 30941 ft 502 kts 109°
2026-04-25 09:40 16.01474 -20.91885 30940 ft 502 kts 109°
2026-04-25 09:40 15.99026 -20.85111 30940 ft 502 kts 109°
2026-04-25 09:41 15.96569 -20.78321 30942 ft 502 kts 109°
2026-04-25 09:41 15.94116 -20.71551 30945 ft 502 kts 109°
2026-04-25 09:42 15.91668 -20.64801 30948 ft 502 kts 109°
2026-04-25 09:42 15.89210 -20.58030 30946 ft 502 kts 109°
2026-04-25 09:43 15.86744 -20.51244 30939 ft 502 kts 109°
2026-04-25 09:43 15.84280 -20.44473 31256 ft 504 kts 109°
2026-04-25 09:44 15.83045 -20.41081 31584 ft 503 kts 109°
2026-04-25 09:44 15.81820 -20.37719 31911 ft 502 kts 110°
2026-04-25 09:44 15.80589 -20.34342 32214 ft 501 kts 110°
2026-04-25 09:44 15.79355 -20.30960 32445 ft 502 kts 110°
2026-04-25 09:45 15.78118 -20.27567 32636 ft 503 kts 110°
2026-04-25 09:45 15.76874 -20.24160 32838 ft 504 kts 110°
2026-04-25 09:45 15.74399 -20.17386 32931 ft 506 kts 111°
2026-04-25 09:46 15.71905 -20.10570 32938 ft 504 kts 111°
2026-04-25 09:46 15.69430 -20.03813 32940 ft 503 kts 111°
2026-04-25 09:47 15.66934 -19.97033 32941 ft 503 kts 111°
2026-04-25 09:47 15.64458 -19.90259 32939 ft 503 kts 110°
2026-04-25 09:48 15.61993 -19.83455 32939 ft 503 kts 110°
2026-04-25 09:48 15.59535 -19.76687 32942 ft 503 kts 110°
2026-04-25 09:49 15.57079 -19.69942 32940 ft 503 kts 110°
2026-04-25 09:49 15.54614 -19.63175 32940 ft 503 kts 110°
2026-04-25 09:50 15.52148 -19.56412 32940 ft 503 kts 110°
2026-04-25 09:50 15.49680 -19.49652 32943 ft 503 kts 110°
2026-04-25 09:51 15.47209 -19.42892 32946 ft 503 kts 110°
2026-04-25 09:51 15.44723 -19.36097 32951 ft 503 kts 110°
2026-04-25 09:52 15.42311 -19.29506 32937 ft 503 kts 111°
2026-04-25 09:52 15.39925 -19.22997 32939 ft 503 kts 111°
2026-04-25 09:53 15.37484 -19.16344 32938 ft 503 kts 111°
2026-04-25 09:53 15.35001 -19.09588 32937 ft 503 kts 111°
2026-04-25 09:54 15.32512 -19.02818 32938 ft 503 kts 111°
2026-04-25 09:54 15.30018 -18.96045 32938 ft 503 kts 111°
2026-04-25 09:55 15.27530 -18.89294 32939 ft 503 kts 111°
2026-04-25 09:55 15.25041 -18.82548 32939 ft 503 kts 111°
2026-04-25 09:56 15.22557 -18.75822 32940 ft 503 kts 111°
2026-04-25 09:56 15.20053 -18.69050 32940 ft 503 kts 111°
2026-04-25 09:57 15.17558 -18.62309 32943 ft 503 kts 111°
2026-04-25 09:57 15.15072 -18.55596 32946 ft 503 kts 111°
2026-04-25 09:58 15.12566 -18.48840 32951 ft 503 kts 111°
2026-04-25 09:58 15.10064 -18.42102 32955 ft 503 kts 111°
2026-04-25 09:59 15.07560 -18.35362 32960 ft 503 kts 111°
2026-04-25 09:59 15.05063 -18.28646 32937 ft 503 kts 111°
2026-04-25 10:00 15.02559 -18.21922 32937 ft 503 kts 111°
2026-04-25 10:00 15.00050 -18.15190 32939 ft 503 kts 111°
2026-04-25 10:01 14.97529 -18.08435 32938 ft 503 kts 111°
2026-04-25 10:01 14.95017 -18.01711 32939 ft 503 kts 111°
2026-04-25 10:02 14.92464 -17.95003 32940 ft 503 kts 111°
2026-04-25 10:02 14.89929 -17.88316 32940 ft 503 kts 111°
2026-04-25 10:03 14.87398 -17.81594 32939 ft 503 kts 111°
2026-04-25 10:03 14.84849 -17.74842 32939 ft 503 kts 111°
2026-04-25 10:04 14.82319 -17.68148 32943 ft 503 kts 111°
2026-04-25 10:04 14.79777 -17.61432 32940 ft 503 kts 111°
2026-04-25 10:05 14.77877 -17.54569 32969 ft 495 kts 88°
2026-04-25 10:05 14.78308 -17.51091 33001 ft 486 kts 71°
2026-04-25 10:05 14.79350 -17.47784 32988 ft 484 kts 63°
2026-04-25 10:06 14.81040 -17.44847 32996 ft 468 kts 43°
2026-04-25 10:06 14.83451 -17.42768 33017 ft 448 kts 22°
2026-04-25 10:06 14.86286 -17.41557 33041 ft 437 kts 11°
2026-04-25 10:06 14.89190 -17.40621 33010 ft 441 kts 11°
2026-04-25 10:07 14.94954 -17.38362 32988 ft 451 kts 17°
2026-04-25 10:07 15.00691 -17.35743 32965 ft 453 kts 17°
2026-04-25 10:08 15.06430 -17.33139 32928 ft 452 kts 17°
2026-04-25 10:08 15.12169 -17.30564 32935 ft 451 kts 17°
2026-04-25 10:09 15.17914 -17.27984 32940 ft 452 kts 17°
2026-04-25 10:09 15.23652 -17.25401 32939 ft 452 kts 17°
2026-04-25 10:10 15.29424 -17.22802 32937 ft 452 kts 17°
2026-04-25 10:10 15.35163 -17.20218 32941 ft 452 kts 17°
2026-04-25 10:11 15.40911 -17.17627 32939 ft 452 kts 17°
2026-04-25 10:11 15.46651 -17.15038 32938 ft 452 kts 17°
2026-04-25 10:12 15.52407 -17.12440 32937 ft 452 kts 17°
2026-04-25 10:13 15.60991 -17.08564 32937 ft 452 kts 17°
2026-04-25 10:13 15.66729 -17.05970 32938 ft 452 kts 17°
2026-04-25 10:14 15.72471 -17.03373 32941 ft 452 kts 17°
2026-04-25 10:14 15.78205 -17.00778 32939 ft 452 kts 17°
2026-04-25 10:15 15.83941 -16.98181 32939 ft 452 kts 17°
2026-04-25 10:15 15.89696 -16.95574 32936 ft 452 kts 17°
2026-04-25 10:16 15.95405 -16.92985 32938 ft 452 kts 17°
2026-04-25 10:16 16.01142 -16.90382 32941 ft 452 kts 17°
2026-04-25 10:17 16.06896 -16.87771 32939 ft 452 kts 17°
2026-04-25 10:17 16.12635 -16.85163 32945 ft 452 kts 17°
2026-04-25 10:18 16.18369 -16.82558 32942 ft 455 kts 17°
2026-04-25 10:18 16.24191 -16.79912 32941 ft 459 kts 17°
2026-04-25 10:19 16.30027 -16.77320 32941 ft 459 kts 15°
2026-04-25 10:19 16.35930 -16.74900 32853 ft 458 kts 15°
2026-04-25 10:19 16.38858 -16.73707 32582 ft 449 kts 15°
2026-04-25 10:20 16.41744 -16.72525 32045 ft 447 kts 15°
2026-04-25 10:20 16.44639 -16.71336 31537 ft 443 kts 15°
2026-04-25 10:20 16.47450 -16.70180 31107 ft 439 kts 15°
2026-04-25 10:20 16.50259 -16.69024 30628 ft 434 kts 16°
2026-04-25 10:21 16.53059 -16.67873 30150 ft 430 kts 16°
2026-04-25 10:21 16.55795 -16.66748 29679 ft 426 kts 16°
2026-04-25 10:21 16.58479 -16.65644 29213 ft 423 kts 16°
2026-04-25 10:21 16.61241 -16.64508 28733 ft 420 kts 17°
2026-04-25 10:22 16.63954 -16.63391 28266 ft 417 kts 17°
2026-04-25 10:22 16.66610 -16.62297 27812 ft 414 kts 17°
2026-04-25 10:22 16.69190 -16.61235 27367 ft 412 kts 17°
2026-04-25 10:22 16.71832 -16.60146 26913 ft 409 kts 17°
2026-04-25 10:23 16.74461 -16.59063 26453 ft 407 kts 18°
2026-04-25 10:23 16.77072 -16.57986 25994 ft 404 kts 18°
2026-04-25 10:23 16.79664 -16.56917 25535 ft 402 kts 18°
2026-04-25 10:23 16.82260 -16.55846 25084 ft 399 kts 18°
2026-04-25 10:24 16.84799 -16.54798 24646 ft 396 kts 19°
2026-04-25 10:24 16.87347 -16.53746 24203 ft 393 kts 19°
2026-04-25 10:24 16.89865 -16.52707 23762 ft 390 kts 19°
2026-04-25 10:24 16.92368 -16.51673 23321 ft 387 kts 19°
2026-04-25 10:25 16.94846 -16.50649 22888 ft 384 kts 19°
2026-04-25 10:25 16.97296 -16.49656 22706 ft 374 kts 19°
2026-04-25 10:25 16.99700 -16.48662 22132 ft 376 kts 20°
2026-04-25 10:25 17.02125 -16.47650 21669 ft 373 kts 20°
2026-04-25 10:26 17.04514 -16.46655 21232 ft 370 kts 20°
2026-04-25 10:26 17.06870 -16.45678 20814 ft 367 kts 20°
2026-04-25 10:26 17.09225 -16.44702 20381 ft 365 kts 20°
2026-04-25 10:26 17.11577 -16.43729 19965 ft 362 kts 21°
2026-04-25 10:27 17.13895 -16.42769 19552 ft 359 kts 21°
2026-04-25 10:27 17.16179 -16.41823 19151 ft 356 kts 21°
2026-04-25 10:27 17.18462 -16.40877 18747 ft 353 kts 21°
2026-04-25 10:27 17.20737 -16.39935 18349 ft 349 kts 21°
2026-04-25 10:28 17.22975 -16.39007 17951 ft 346 kts 21°
2026-04-25 10:28 17.25194 -16.38087 17565 ft 343 kts 21°
2026-04-25 10:28 17.27377 -16.37181 17175 ft 340 kts 21°
2026-04-25 10:28 17.29558 -16.36276 16771 ft 338 kts 22°
2026-04-25 10:29 17.31723 -16.35378 16382 ft 335 kts 22°
2026-04-25 10:29 17.33867 -16.34488 15999 ft 332 kts 22°
2026-04-25 10:29 17.36007 -16.33599 15607 ft 329 kts 22°
2026-04-25 10:29 17.38116 -16.32723 15214 ft 327 kts 22°
2026-04-25 10:30 17.40211 -16.31853 14830 ft 324 kts 22°
2026-04-25 10:30 17.42274 -16.30995 14453 ft 321 kts 22°
2026-04-25 10:30 17.44333 -16.30140 14066 ft 319 kts 22°
2026-04-25 10:30 17.46379 -16.29290 13690 ft 316 kts 22°
2026-04-25 10:31 17.48405 -16.28447 13314 ft 314 kts 22°
2026-04-25 10:31 17.50416 -16.27611 12946 ft 311 kts 22°
2026-04-25 10:31 17.52424 -16.26775 12569 ft 309 kts 22°
2026-04-25 10:31 17.54401 -16.25953 12206 ft 306 kts 22°
2026-04-25 10:32 17.56364 -16.25136 11851 ft 303 kts 22°
2026-04-25 10:32 17.58295 -16.24332 11599 ft 297 kts 22°
2026-04-25 10:32 17.60186 -16.23545 11343 ft 291 kts 22°
2026-04-25 10:32 17.62026 -16.22779 11093 ft 285 kts 22°
2026-04-25 10:33 17.63817 -16.22033 10950 ft 271 kts 22°
2026-04-25 10:33 17.65538 -16.21316 10758 ft 263 kts 22°
2026-04-25 10:33 17.67253 -16.20601 10193 ft 271 kts 22°
2026-04-25 10:33 17.68993 -16.19875 9721 ft 274 kts 22°
2026-04-25 10:34 17.70754 -16.19141 9344 ft 273 kts 22°
2026-04-25 10:34 17.72500 -16.18413 9006 ft 270 kts 22°
2026-04-25 10:34 17.74232 -16.17690 8663 ft 268 kts 22°
2026-04-25 10:34 17.75940 -16.16978 8453 ft 260 kts 22°
2026-04-25 10:35 17.77582 -16.16293 8310 ft 250 kts 22°
2026-04-25 10:35 17.79174 -16.15629 8064 ft 242 kts 22°
2026-04-25 10:35 17.80723 -16.14982 7658 ft 241 kts 22°
2026-04-25 10:35 17.82260 -16.14340 7217 ft 240 kts 22°
2026-04-25 10:36 17.83811 -16.13692 6786 ft 239 kts 22°
2026-04-25 10:36 17.85331 -16.13058 6372 ft 237 kts 22°
2026-04-25 10:36 17.86854 -16.12421 5957 ft 236 kts 22°
2026-04-25 10:36 17.88365 -16.11790 5622 ft 229 kts 22°
2026-04-25 10:37 17.89783 -16.11198 5483 ft 215 kts 22°
2026-04-25 10:37 17.91101 -16.10647 5407 ft 195 kts 22°
2026-04-25 10:37 17.92314 -16.10140 5111 ft 186 kts 22°
2026-04-25 10:37 17.93507 -16.09641 4637 ft 186 kts 22°
2026-04-25 10:38 17.94706 -16.09139 4179 ft 185 kts 21°
2026-04-25 10:38 17.95885 -16.08646 3769 ft 182 kts 21°
2026-04-25 10:38 17.97023 -16.08170 3424 ft 175 kts 21°
2026-04-25 10:38 17.98122 -16.07710 3085 ft 168 kts 21°
2026-04-25 10:39 17.99188 -16.07264 2686 ft 165 kts 21°
2026-04-25 10:39 18.00243 -16.06823 2268 ft 164 kts 21°
2026-04-25 10:39 18.01275 -16.06390 2006 ft 155 kts 21°
2026-04-25 10:39 18.02272 -16.05973 2009 ft 156 kts 21°
2026-04-25 10:40 18.03286 -16.05550 2010 ft 160 kts 21°
2026-04-25 10:40 18.04379 -16.05514 2010 ft 162 kts 339°
2026-04-25 10:40 18.05205 -16.06305 2028 ft 168 kts 301°
2026-04-25 10:40 18.05925 -16.07267 2018 ft 166 kts 321°
2026-04-25 10:41 18.06781 -16.08066 2027 ft 166 kts 321°
2026-04-25 10:41 18.07644 -16.08866 2015 ft 166 kts 321°
2026-04-25 10:41 18.08473 -16.09703 2003 ft 166 kts 316°
2026-04-25 10:41 18.09270 -16.10588 2002 ft 166 kts 316°
2026-04-25 10:42 18.10056 -16.11461 2000 ft 166 kts 316°
2026-04-25 10:42 18.10854 -16.12348 2004 ft 166 kts 316°
2026-04-25 10:42 18.11678 -16.13182 2003 ft 165 kts 322°
2026-04-25 10:42 18.12551 -16.13964 2005 ft 165 kts 322°
2026-04-25 10:43 18.13503 -16.14618 1980 ft 162 kts 348°
2026-04-25 10:43 18.14577 -16.14462 2008 ft 162 kts 29°
2026-04-25 10:43 18.15555 -16.13867 2018 ft 163 kts 29°
2026-04-25 10:43 18.16530 -16.13272 2009 ft 162 kts 29°
2026-04-25 10:44 18.17504 -16.12677 2006 ft 162 kts 29°
2026-04-25 10:44 18.18484 -16.12079 2003 ft 162 kts 31°
2026-04-25 10:44 18.19376 -16.11371 2005 ft 163 kts 39°
2026-04-25 10:44 18.20197 -16.10555 2005 ft 163 kts 44°
2026-04-25 10:45 18.20953 -16.09705 1990 ft 155 kts 46°
2026-04-25 10:45 18.21641 -16.08885 2018 ft 148 kts 47°
2026-04-25 10:45 18.22317 -16.08063 2005 ft 149 kts 47°
2026-04-25 10:45 18.22994 -16.07232 1999 ft 150 kts 47°
2026-04-25 10:46 18.23673 -16.06398 1795 ft 150 kts 47°
2026-04-25 10:46 18.24332 -16.05583 1588 ft 144 kts 47°
2026-04-25 10:46 18.24974 -16.04788 1378 ft 140 kts 47°
2026-04-25 10:46 18.25581 -16.04020 1212 ft 138 kts 48°
2026-04-25 10:47 18.26196 -16.03237 1062 ft 142 kts 47°
2026-04-25 10:47 18.26859 -16.02438 870 ft 147 kts 46°
2026-04-25 10:47 18.27521 -16.01645 666 ft 145 kts 47°
2026-04-25 10:47 18.28154 -16.00857 460 ft 139 kts 47°
2026-04-25 10:48 18.28772 -16.00091 260 ft 135 kts 46°
2026-04-25 10:48 18.29376 -15.99352 83 ft 135 kts 46°
2026-04-25 10:48 18.29966 -15.98643 21 ft 111 kts 48°
2026-04-25 10:48 18.30331 -15.98189 21 ft 57 kts 50°
2026-04-25 10:49 18.30521 -15.97953 20 ft 29 kts 49°
2026-04-25 10:49 18.30655 -15.97791 20 ft 29 kts 50°
2026-04-25 10:49 18.30782 -15.97632 20 ft 29 kts 50°
2026-04-25 10:49 18.30845 -15.97512 20 ft 17 kts 105°
2026-04-25 10:50 18.30774 -15.97413 20 ft 18 kts 109°
2026-04-25 10:50 18.30808 -15.97291 20 ft 19 kts 60°
2026-04-25 10:50 18.30872 -15.97171 20 ft 19 kts 59°